"2010-09-08 00:00:00",141421,2.343,20.27,4.63,0.268,19.09,108.5986,21.3,22.17,19.16,0,111,13.15,22.12,342.3
"2010-09-08 00:00:30",141422,2.771,21.23,3.083,0.182,19.01,108.5986,21.3,22.17,19.14,0,111,13.15,22.12,343.2
"2010-09-08 00:01:00",141423,2.697,20.16,2.793,0.186,18.99,108.594,21.28,22.15,18.99,0,111,13.15,22.11,342.2
"2010-09-08 00:01:30",141424,2.574,19.59,3.11,0.241,19,108.5762,21.24,22.13,19,0,111,13.15,22.06,341.6
"2010-09-08 00:02:00",141425,2.3,18.24,2.765,0.231,18.99,108.5765,21.24,22.13,19,0,111,13.15,22.07,340.2
"2010-09-08 00:02:30",141426,2.629,22.59,2.531,0.222,18.92,108.5705,21.22,22.13,18.94,0,111,13.15,22.05,344.6
"2010-09-08 00:03:00",141427,2.622,20.81,2.851,0.23,18.95,108.5658,21.21,22.12,18.95,0,111,13.15,22.04,342.8
"2010-09-08 00:03:30",141428,2.574,21.38,2.532,0.115,18.95,108.5667,21.21,22.13,18.93,0,111,13.15,22.04,343.4
"2010-09-08 00:04:00",141429,2.473,19.44,1.699,0.198,18.96,108.5706,21.22,22.13,18.9,0,111,13.15,22.05,341.4
"2010-09-08 00:04:30",141430,2.62,14.18,2.397,0.3,19.01,108.588,21.27,22.13,18.87,0,111,13.15,22.09,336.2
"2010-09-08 00:05:00",141431,1.975,10.4,2.888,0.278,19.06,108.5993,21.3,22.15,18.85,0,111,13.15,22.12,332.4
"2010-09-08 00:05:30",141432,1.557,13.72,3.706,0.242,19.12,108.603,21.31,22.15,18.83,0,111,13.15,22.13,335.7
"2010-09-08 00:06:00",141433,1.325,11.52,5.795,0.446,19.15,108.6213,21.35,22.17,18.81,0,111,13.15,22.18,333.5
"2010-09-08 00:06:30",141434,1.301,12.17,4.115,0.274,19.08,108.6337,21.39,22.2,18.61,0,111,13.14,22.21,334.2
"2010-09-08 00:07:00",141435,1.252,11.7,4.407,0.36,19.06,108.6339,21.39,22.22,18.46,0,111,13.15,22.21,333.7
"2010-09-08 00:07:30",141436,1.113,12.27,5.359,0.205,19.07,108.6345,21.39,22.21,18.51,0,111,13.15,22.21,334.3
"2010-09-08 00:08:00",141437,1.617,13.86,4.06,0.342,19.01,108.6364,21.39,22.23,18.48,0,111,13.15,22.22,335.9
"2010-09-08 00:08:30",141438,1.999,15.63,3.424,0.388,18.99,108.6356,21.39,22.23,18.35,0,111,13.15,22.22,337.6
"2010-09-08 00:09:00",141439,1.97,16.54,1.977,0.227,18.98,108.6383,21.4,22.23,18.32,0,111,13.15,22.22,338.5
"2010-09-08 00:09:30",141440,1.729,15.22,2.867,0.228,18.98,108.6367,21.39,22.24,18.39,0,111,13.15,22.22,337.2
"2010-09-08 00:10:00",141441,1.42,14.04,3.192,0.268,19.03,108.6364,21.39,22.23,18.3,0,111,13.15,22.22,336.0
"2010-09-08 00:10:30",141442,1.674,15.8,2.815,0.22,18.99,108.6394,21.4,22.25,18.26,0,111,13.15,22.23,337.8
"2010-09-08 00:11:00",141443,1.803,16.55,2.226,0.152,18.96,108.6409,21.4,22.28,18.22,0,111,13.15,22.23,338.5
"2010-09-08 00:11:30",141444,1.669,15.8,2.37,0.11,18.92,108.644,21.41,22.28,18.18,0,111,13.15,22.24,337.8
"2010-09-08 00:12:00",141445,1.854,15.91,2.603,0.17,18.9,108.6436,21.41,22.28,18.13,0,111,13.15,22.24,337.9
"2010-09-08 00:12:30",141446,1.846,17.12,1.77,0.161,18.93,108.6475,21.42,22.29,18.1,0,111,13.15,22.25,339.1
"2010-09-08 00:13:00",141447,1.891,17.22,2.36,0.182,18.96,108.6497,21.43,22.28,18.13,0,111,13.15,22.25,339.2
"2010-09-08 00:13:30",141448,1.658,16.49,1.697,0.164,18.95,108.6571,21.45,22.28,18.06,0,111,13.15,22.27,338.5
"2010-09-08 00:14:00",141449,1.698,16.49,1.911,0.198,18.96,108.6664,21.47,22.3,17.99,0,111,13.15,22.30,338.5
"2010-09-08 00:14:30",141450,1.496,15.12,3.961,0.256,18.97,108.6688,21.48,22.31,18.04,0,111,13.15,22.30,337.1
"2010-09-08 00:15:00",141451,1.647,16.05,2.129,0.218,18.89,108.674,21.49,22.32,18.06,0,111,13.16,22.32,338.0
"2010-09-08 00:15:30",141452,1.639,16.35,2.187,0.154,18.89,108.6789,21.5,22.32,18.06,0,111,13.16,22.33,338.4
"2010-09-08 00:16:00",141453,1.806,16.65,3.074,0.244,18.87,108.6711,21.48,22.32,18.1,0,111,13.15,22.31,338.6
"2010-09-08 00:16:30",141454,2.169,18.97,1.195,0.122,18.86,108.6633,21.46,22.32,18.16,0,111,13.15,22.29,341.0
"2010-09-08 00:17:00",141455,2.159,19.23,2.123,0.199,18.89,108.6579,21.45,22.32,18.29,0,111,13.16,22.27,341.2
"2010-09-08 00:17:30",141456,2.187,21.96,1.734,0.162,18.94,108.6562,21.44,22.3,18.51,0,111,13.15,22.27,344.0
"2010-09-08 00:18:00",141457,2.083,21.11,1.643,0.099,18.99,108.6525,21.43,22.29,18.54,0,111,13.16,22.26,343.1
"2010-09-08 00:18:30",141458,2.039,19.91,2.21,0.119,19.02,108.6326,21.38,22.27,18.48,0,111,13.16,22.21,341.9
"2010-09-08 00:19:00",141459,1.936,15.1,2.402,0.179,19.01,108.6327,21.38,22.27,18.14,0,111,13.16,22.21,337.1
"2010-09-08 00:19:30",141460,2.022,16.69,2.767,0.138,19.06,108.6324,21.38,22.25,18.14,0,111,13.15,22.21,338.7
"2010-09-08 00:20:00",141461,1.909,18.28,1.501,0.118,19.05,108.6319,21.38,22.26,18.29,0,111,13.15,22.21,340.3
"2010-09-08 00:20:30",141462,1.635,17.56,2.308,0.155,19.13,108.6277,21.37,22.24,18.15,0,111,13.16,22.20,339.6
"2010-09-08 00:21:00",141463,1.4,16.02,3.48,0.275,19.15,108.626,21.37,22.25,17.87,0,111,13.15,22.19,338.0
"2010-09-08 00:21:30",141464,1.308,15.92,2.407,0.253,19.2,108.6255,21.36,22.25,17.85,0,111,13.15,22.19,337.9
"2010-09-08 00:22:00",141465,1.234,17.1,2.842,0.212,19.24,108.6249,21.36,22.24,18,0,111,13.15,22.19,339.1
"2010-09-08 00:22:30",141466,1.325,16.4,3.64,0.232,19.22,108.6255,21.36,22.22,17.95,0,111,13.15,22.19,338.4
"2010-09-08 00:23:00",141467,1.213,16.25,5.141,0.292,19.22,108.6252,21.36,22.22,18.23,0,111,13.15,22.19,338.2
"2010-09-08 00:23:30",141468,0.64,9.44,5.82,0.162,19.3,108.6264,21.37,22.23,18.12,0,111,13.15,22.19,331.4
"2010-09-08 00:24:00",141469,0.51,8.54,7.421,0.12,19.31,108.6258,21.37,22.22,17.91,0,111,13.15,22.19,330.5
"2010-09-08 00:24:30",141470,0.405,7.342,7.652,0.164,19.3,108.6273,21.37,22.23,17.74,0,111,13.15,22.20,329.3
"2010-09-08 00:25:00",141471,0.494,4.678,10.97,0.17,19.32,108.6301,21.38,22.23,17.73,0,111,13.15,22.20,326.7
"2010-09-08 00:25:30",141472,0.295,7.764,9.57,0.127,19.32,108.6336,21.39,22.24,17.71,0,111,13.15,22.21,329.8
"2010-09-08 00:26:00",141473,0.264,8.64,13.91,0.148,19.29,108.6352,21.39,22.24,17.7,0,111,13.15,22.22,330.6
"2010-09-08 00:26:30",141474,0.208,6.294,16.72,0.14,19.29,108.6398,21.4,22.25,17.7,0,111,13.15,22.23,328.3
"2010-09-08 00:27:00",141475,0.139,6.656,13.35,0.139,19.3,108.6328,21.38,22.24,17.73,0,111,13.16,22.21,328.7
"2010-09-08 00:27:30",141476,0.205,7.588,16.73,0.189,19.28,108.6341,21.39,22.24,17.72,0,111,13.16,22.21,329.6
"2010-09-08 00:28:00",141477,0.208,9.17,12.94,0.115,19.27,108.6334,21.39,22.24,17.74,0,111,13.16,22.21,331.2
"2010-09-08 00:28:30",141478,0.153,8,9.9,0.109,19.24,108.6338,21.39,22.24,17.84,0,111,13.16,22.21,330.0
"2010-09-08 00:29:00",141479,0.237,9.8,12.14,0.164,19.22,108.6341,21.39,22.24,17.88,0,111,13.16,22.21,331.8
"2010-09-08 00:29:30",141480,0.422,6.559,9.68,0.142,19.13,108.6338,21.39,22.23,18.04,0,111,13.16,22.21,328.6
"2010-09-08 00:30:00",141481,0.849,359.7,7.509,0.189,19.12,108.6102,21.33,22.2,18.06,0,111,13.16,22.15,321.7
"2010-09-08 00:30:30",141482,0.923,1.785,3.45,0.115,19.05,108.6003,21.3,22.2,18.1,0,111,13.16,22.13,323.8
"2010-09-08 00:31:00",141483,1.157,3.43,5.331,0.3,19.1,108.5902,21.27,22.16,18.12,0,111,13.16,22.10,325.4
"2010-09-08 00:31:30",141484,1.353,4.762,3.097,0.207,19.11,108.5669,21.21,22.15,18.09,0,111,13.16,22.04,326.8
"2010-09-08 00:32:00",141485,1.466,9.44,2.498,0.206,19.07,108.5666,21.21,22.14,18.12,0,111,13.16,22.04,331.4
"2010-09-08 00:32:30",141486,1.566,7.369,2.075,0.174,19.1,108.5663,21.21,22.11,18.09,0,111,13.16,22.04,329.4
"2010-09-08 00:33:00",141487,1.872,12.69,2.636,0.105,19.13,108.5506,21.17,22.09,18.12,0,111,13.16,22.00,334.7
"2010-09-08 00:33:30",141488,1.776,18.27,1.376,0.119,19.17,108.534,21.13,22.08,18.17,0,111,13.17,21.96,340.3
"2010-09-08 00:34:00",141489,1.833,21.54,1.506,0.077,19.2,108.5329,21.13,22.05,18.18,0,111,13.16,21.95,343.5
"2010-09-08 00:34:30",141490,1.859,23.66,0.875,0.076,19.28,108.5323,21.13,22.04,18.12,0,111,13.16,21.95,345.7
"2010-09-08 00:35:00",141491,1.896,25.47,0.888,0.039,19.31,108.5267,21.11,22.04,18.27,0,111,13.17,21.94,347.5
"2010-09-08 00:35:30",141492,2.008,28.05,1.051,0.067,19.39,108.5166,21.09,22,18.44,0,111,13.17,21.91,350.0
"2010-09-08 00:36:00",141493,2.107,27.7,0.98,0.051,19.47,108.5,21.04,21.99,18.49,0,111,13.17,21.87,349.7
"2010-09-08 00:36:30",141494,2.064,30.11,1.22,0.052,19.47,108.4991,21.04,21.97,18.39,0,111,13.17,21.87,352.1
"2010-09-08 00:37:00",141495,2.217,35.23,2.503,0.129,19.55,108.4991,21.04,21.96,18.63,0,111,13.17,21.87,357.2
"2010-09-08 00:37:30",141496,2.197,36.06,1.001,0.078,19.6,108.4958,21.03,21.95,18.77,0,111,13.17,21.86,358.1
"2010-09-08 00:38:00",141497,2.147,38.31,0.711,0.023,19.63,108.4764,20.98,21.91,18.9,0,111,13.16,21.81,0.3
"2010-09-08 00:38:30",141498,2.093,37.79,1.513,0.049,19.57,108.473,20.97,21.91,18.93,0,111,13.16,21.80,359.8
"2010-09-08 00:39:00",141499,1.969,35.91,1.268,0.129,19.54,108.4671,20.96,21.9,18.89,0,111,13.16,21.78,357.9
"2010-09-08 00:39:30",141500,1.737,37.31,3.092,0.073,19.63,108.4663,20.96,21.9,18.87,0,111,13.16,21.78,359.3
"2010-09-08 00:40:00",141501,1.721,37.57,1.466,0.046,19.65,108.4654,20.95,21.89,18.78,0,111,13.16,21.78,359.6
"2010-09-08 00:40:30",141502,1.65,35.78,0.761,0.064,19.66,108.4654,20.95,21.88,18.9,0,111,13.16,21.78,357.8
"2010-09-08 00:41:00",141503,1.618,36.27,1.549,0.063,19.73,108.4657,20.95,21.88,18.86,0,111,13.16,21.78,358.3
"2010-09-08 00:41:30",141504,1.362,35.77,1.825,0.104,19.73,108.4673,20.96,21.86,18.8,0,111,13.16,21.78,357.8
"2010-09-08 00:42:00",141505,1.215,38.28,1.391,0.099,19.7,108.4682,20.96,21.85,18.86,0,110.9,13.16,21.79,0.3
"2010-09-08 00:42:30",141506,0.888,43.84,5.831,0.147,19.87,108.4734,20.97,21.86,19.02,0,110.9,13.16,21.80,5.8
"2010-09-08 00:43:00",141507,1.358,45.06,2.301,0.141,19.72,108.4865,21.01,21.87,18.92,0,111,13.17,21.83,7.1
"2010-09-08 00:43:30",141508,1.505,57.61,24.78,0.289,20.02,108.5046,21.05,21.9,18.98,0,111,13.17,21.88,19.6
"2010-09-08 00:44:00",141509,1.66,75.46,16.28,0.254,20.21,108.5332,21.13,21.91,19.13,0,111,13.17,21.95,37.5
"2010-09-08 00:44:30",141510,1.645,91.2,7.414,0.191,20.23,108.5664,21.21,21.96,19.09,0,111,13.17,22.04,53.2
"2010-09-08 00:45:00",141511,1.548,103.1,8.79,0.237,20.07,108.5935,21.28,22.02,18.97,0,111,13.17,22.11,65.1
"2010-09-08 00:45:30",141512,0.767,151.3,24.26,0.409,20.05,108.5941,21.28,22.05,18.92,0,110.9,13.17,22.11,113.3
"2010-09-08 00:46:00",141513,0.758,156.2,25.28,0.19,19.94,108.5944,21.28,22.07,18.87,0,111,13.17,22.11,118.2
"2010-09-08 00:46:30",141514,0.98,106.4,14.86,0.307,19.88,108.595,21.29,22.1,18.8,0,110.9,13.17,22.11,68.4
"2010-09-08 00:47:00",141515,1.855,129.6,15.45,0.472,19.9,108.5968,21.29,22.1,18.81,0,110.9,13.18,22.12,91.6
"2010-09-08 00:47:30",141516,2.08,124.6,8.63,0.203,19.83,108.594,21.28,22.09,18.72,0,110.9,13.18,22.11,86.6
"2010-09-08 00:48:00",141517,2.635,100.3,28.45,0.546,20.19,108.5842,21.26,22.07,19.01,0,110.9,13.18,22.08,62.3
"2010-09-08 00:48:30",141518,2.121,146.5,8.76,0.363,20.31,108.6127,21.33,22.11,19.24,0,110.9,13.18,22.16,108.5
"2010-09-08 00:49:00",141519,1.44,122,26.19,0.332,20.21,108.6387,21.4,22.15,19.08,0,110.9,13.18,22.23,84.0
"2010-09-08 00:49:30",141520,1.351,114.4,9.16,0.332,19.71,108.6389,21.4,22.19,18.61,0,110.9,13.18,22.23,76.4
"2010-09-08 00:50:00",141521,0.71,118.7,12.04,0.193,19.53,108.6139,21.33,22.17,18.37,0,110.9,13.18,22.16,80.7
"2010-09-08 00:50:30",141522,0.356,117,24.45,0.146,19.66,108.5737,21.23,22.13,18.45,0,110.9,13.18,22.06,79.0
"2010-09-08 00:51:00",141523,0.55,72.02,23.7,0.142,19.6,108.5523,21.18,22.11,18.4,0,110.9,13.18,22.00,34.0
"2010-09-08 00:51:30",141524,0.355,64.64,11.36,0.123,19.54,108.52,21.09,22.06,18.43,0,110.9,13.18,21.92,26.6
"2010-09-08 00:52:00",141525,0.386,90.5,6.249,0.134,19.46,108.5009,21.04,22.02,18.55,0,110.9,13.19,21.87,52.5
"2010-09-08 00:52:30",141526,0.053,70.41,8.31,0.08,19.49,108.4728,20.97,21.98,18.54,0,110.9,13.19,21.80,32.4
"2010-09-08 00:53:00",141527,0.019,33.05,20.03,0.041,19.67,108.4666,20.96,21.93,18.56,0,110.9,13.19,21.78,355.0
"2010-09-08 00:53:30",141528,-0.063,44.64,33.97,0.045,19.61,108.439,20.89,21.89,18.67,0,110.9,13.19,21.71,6.6
"2010-09-08 00:54:00",141529,0.762,178,19.97,0.773,19.91,108.4345,20.87,21.87,18.84,0,110.9,13.19,21.70,140.0
"2010-09-08 00:54:30",141530,1.879,147.8,15.47,0.43,20.23,108.4618,20.94,21.86,19.58,0,110.9,13.19,21.77,109.8
"2010-09-08 00:55:00",141531,0.95,103.1,27.86,0.428,19.76,108.5,21.04,21.89,19.01,0,110.9,13.18,21.87,65.1
"2010-09-08 00:55:30",141532,0.935,102.5,12.16,0.224,19.57,108.4868,21.01,21.9,18.72,0,110.9,13.18,21.83,64.5
"2010-09-08 00:56:00",141533,0.947,100.7,11.34,0.19,19.67,108.4683,20.96,21.88,18.74,0,110.9,13.18,21.79,62.7
"2010-09-08 00:56:30",141534,0.835,102.5,14.8,0.306,19.66,108.4674,20.96,21.87,18.83,0,110.9,13.18,21.78,64.5
"2010-09-08 00:57:00",141535,1.421,89.8,17.4,0.227,19.74,108.4526,20.92,21.86,18.91,0,110.9,13.18,21.75,51.8
"2010-09-08 00:57:30",141536,1.431,124.8,11.58,0.406,19.95,108.462,20.94,21.85,19.16,0,110.9,13.18,21.77,86.8
"2010-09-08 00:58:00",141537,0.602,113.7,60.61,0.507,19.79,108.4719,20.97,21.85,19.12,0,110.9,13.18,21.80,75.7
"2010-09-08 00:58:30",141538,0.384,120.8,17.38,0.167,19.63,108.472,20.97,21.86,19.02,0,110.9,13.18,21.80,82.8
"2010-09-08 00:59:00",141539,1.118,109.9,10.22,0.36,19.82,108.4585,20.94,21.84,19.02,0,110.9,13.18,21.76,71.9
"2010-09-08 00:59:30",141540,0.952,127.4,16.16,0.324,19.77,108.4651,20.95,21.84,19.04,0,110.9,13.18,21.78,89.4
"2010-09-08 01:00:00",141541,0.426,108.2,27.25,0.229,19.67,108.4653,20.95,21.84,19.1,0,110.9,13.19,21.78,70.2
"2010-09-08 01:00:30",141542,0.853,170.5,11.26,0.374,19.77,108.4472,20.91,21.83,19.13,0,110.9,13.19,21.73,132.5
"2010-09-08 01:01:00",141543,1.197,182.9,28.09,0.417,19.85,108.4497,20.91,21.83,19.2,0,110.9,13.19,21.74,144.9
"2010-09-08 01:01:30",141544,1.783,162.9,6.285,0.315,20.16,108.4796,20.99,21.84,19.52,0,110.9,13.19,21.82,124.9
"2010-09-08 01:02:00",141545,1.82,196.3,13.64,0.5,20.13,108.5158,21.08,21.87,19.49,0,110.9,13.19,21.91,158.3
"2010-09-08 01:02:30",141546,1.641,180.7,19.01,0.444,19.88,108.5267,21.11,21.91,19.29,0,110.9,13.19,21.94,142.7
"2010-09-08 01:03:00",141547,1.675,192.7,13.75,0.38,19.87,108.5313,21.12,21.94,19.17,0,110.9,13.19,21.95,154.7
"2010-09-08 01:03:30",141548,3.507,166.5,9.3,0.75,20.03,108.5343,21.13,21.95,19.24,0,110.9,13.19,21.96,128.5
"2010-09-08 01:04:00",141549,2.798,159.9,8.29,0.899,20.48,108.5635,21.21,21.97,19.67,0,110.9,13.2,22.03,121.9
"2010-09-08 01:04:30",141550,2.695,179.6,8.48,0.368,20.39,108.609,21.32,22.03,19.61,0,110.9,13.19,22.15,141.6
"2010-09-08 01:05:00",141551,2.029,168.6,14.14,1.021,19.95,108.6393,21.4,22.08,19.23,0,110.9,13.2,22.23,130.6
"2010-09-08 01:05:30",141552,0.492,156.2,46.75,0.349,19.73,108.6126,21.33,22.11,18.97,0,110.9,13.2,22.16,118.2
"2010-09-08 01:06:00",141553,0.888,191.1,34.78,0.443,19.72,108.5859,21.26,22.1,18.96,0,110.9,13.2,22.09,153.1
"2010-09-08 01:06:30",141554,1.714,144.1,9.1,0.43,19.9,108.5724,21.23,22.07,19.18,0,110.8,13.2,22.05,106.1
"2010-09-08 01:07:00",141555,0.473,163.7,55.17,0.431,20.06,108.5724,21.23,22.06,19.28,0,110.8,13.2,22.05,125.7
"2010-09-08 01:07:30",141556,1.111,200.2,24.61,0.468,19.96,108.5724,21.23,22.08,19.35,0,110.8,13.2,22.05,162.2
"2010-09-08 01:08:00",141557,-0.013,299,63.53,0.121,19.64,108.5724,21.23,22.08,19.18,0,110.8,13.2,22.05,261.0
"2010-09-08 01:08:30",141558,0.16,275.4,18.31,0.185,19.59,108.56,21.2,22.07,18.96,0,110.8,13.2,22.02,237.4
"2010-09-08 01:09:00",141559,0.442,156.3,41.18,0.282,19.81,108.5386,21.14,22.05,19.11,0,110.8,13.2,21.97,118.3
"2010-09-08 01:09:30",141560,0.841,221.3,24.61,0.515,19.99,108.537,21.14,22.02,19.33,0,110.8,13.2,21.96,183.3
"2010-09-08 01:10:00",141561,0.764,230.3,6.21,0.184,19.79,108.5322,21.13,22.01,19.23,0,110.8,13.2,21.95,192.3
"2010-09-08 01:10:30",141562,0.425,212.5,17.5,0.359,20.01,108.5263,21.11,21.99,19.37,0,110.8,13.2,21.94,174.5
"2010-09-08 01:11:00",141563,1.309,212.3,21.99,0.379,20.24,108.5389,21.14,22,19.55,0,110.8,13.2,21.97,174.3
"2010-09-08 01:11:30",141564,2.188,233.4,7.361,0.199,19.94,108.5614,21.2,22.02,19.44,0,110.8,13.2,22.03,195.4
"2010-09-08 01:12:00",141565,2.25,206.5,10.72,0.255,19.75,108.5482,21.17,22.02,19.27,0,110.8,13.19,21.99,168.5
"2010-09-08 01:12:30",141566,2.08,205.7,10.79,0.275,19.63,108.5361,21.14,22.01,19.15,0,110.8,13.2,21.96,167.7
"2010-09-08 01:13:00",141567,1.071,202.3,12,0.37,19.82,108.5116,21.07,21.98,19.29,0,110.8,13.2,21.90,164.3
"2010-09-08 01:13:30",141568,0.591,240.1,13.26,0.303,19.83,108.5049,21.06,21.99,19.28,0,110.8,13.19,21.88,202.1
"2010-09-08 01:14:00",141569,1.12,220.1,10.54,0.373,19.81,108.5049,21.06,21.96,19.28,0,110.8,13.19,21.88,182.1
"2010-09-08 01:14:30",141570,2.646,234.7,7.414,0.321,19.87,108.5046,21.05,21.94,19.34,0,110.8,13.19,21.88,196.7
"2010-09-08 01:15:00",141571,2.226,223.8,5.758,0.25,19.92,108.5049,21.06,21.95,19.39,0,110.8,13.19,21.88,185.8
"2010-09-08 01:15:30",141572,1.373,223.5,7.781,0.255,20.02,108.5049,21.06,21.95,19.5,0,110.8,13.19,21.88,185.5
"2010-09-08 01:16:00",141573,1.554,223.7,5.069,0.176,19.86,108.5061,21.06,21.95,19.43,0,110.8,13.19,21.88,185.7
"2010-09-08 01:16:30",141574,1.254,238.8,8.94,0.136,19.83,108.5058,21.06,21.96,19.38,0,110.8,13.2,21.88,200.8
"2010-09-08 01:17:00",141575,0.996,252.4,13.71,0.293,19.91,108.507,21.06,21.94,19.42,0,110.8,13.2,21.89,214.4
"2010-09-08 01:17:30",141576,0.742,285.4,7.984,0.074,19.83,108.5092,21.07,21.93,19.31,0,110.8,13.2,21.89,247.4
"2010-09-08 01:18:00",141577,0.726,299,9.25,0.182,19.75,108.4944,21.03,21.96,19.27,0,110.8,13.2,21.85,261.0
"2010-09-08 01:18:30",141578,0.861,259.3,15.92,0.306,19.77,108.4864,21.01,21.94,19.27,0,110.8,13.2,21.83,221.3
"2010-09-08 01:19:00",141579,0.544,266,12.96,0.191,19.82,108.4869,21.01,21.91,19.33,0,110.8,13.2,21.83,228.0
"2010-09-08 01:19:30",141580,1.094,272.8,14.45,0.179,19.73,108.474,20.98,21.88,19.33,0,110.8,13.2,21.80,234.8
"2010-09-08 01:20:00",141581,0.897,276.2,16.37,0.208,19.77,108.463,20.95,21.87,19.3,0,110.8,13.2,21.77,238.2
"2010-09-08 01:20:30",141582,0.311,267.1,12.99,0.099,19.64,108.453,20.92,21.83,19.28,0,110.8,13.21,21.75,229.1
"2010-09-08 01:21:00",141583,0.175,207.2,65.9,0.145,19.71,108.4325,20.87,21.81,19.32,0,110.8,13.21,21.69,169.2
"2010-09-08 01:21:30",141584,-0.081,271.6,84.1,0.054,19.66,108.4314,20.87,21.79,19.42,0,110.8,13.21,21.69,233.6
"2010-09-08 01:22:00",141585,0.032,163.8,67.36,0.126,19.8,108.4098,20.81,21.76,19.43,0,110.8,13.21,21.64,125.8
"2010-09-08 01:22:30",141586,0.242,212.4,48.52,0.231,19.91,108.3982,20.78,21.72,19.54,0,110.8,13.21,21.61,174.4
"2010-09-08 01:23:00",141587,0.422,211.9,13.07,0.139,20.17,108.4226,20.84,21.71,19.78,0,110.8,13.21,21.67,173.9
"2010-09-08 01:23:30",141588,0.663,218.8,13.46,0.118,20.14,108.4436,20.9,21.72,19.75,0,110.8,13.21,21.72,180.8
"2010-09-08 01:24:00",141589,0.459,232.6,14.26,0.073,20.17,108.4723,20.97,21.74,19.69,0,110.8,13.21,21.80,194.6
"2010-09-08 01:24:30",141590,0.884,180,23.65,0.35,20.1,108.476,20.98,21.76,19.71,0,110.8,13.21,21.81,142.0
"2010-09-08 01:25:00",141591,1.116,164.3,12.75,0.19,20.12,108.4993,21.04,21.81,19.76,0,110.8,13.21,21.87,126.3
"2010-09-08 01:25:30",141592,0.642,175.4,34.8,0.429,20.13,108.5078,21.06,21.85,19.71,0,110.8,13.21,21.89,137.4
"2010-09-08 01:26:00",141593,0.958,260,22.42,0.368,20.11,108.5078,21.06,21.85,19.66,0,110.8,13.21,21.89,222.0
"2010-09-08 01:26:30",141594,0.574,242.7,33.99,0.22,20.07,108.508,21.06,21.87,19.63,0,110.8,13.21,21.89,204.7
"2010-09-08 01:27:00",141595,1.023,219.4,14.96,0.454,20.02,108.5145,21.08,21.89,19.61,0,110.8,13.21,21.91,181.4
"2010-09-08 01:27:30",141596,2.768,220.1,10.78,0.906,20.02,108.5241,21.1,21.91,19.59,0,110.8,13.21,21.93,182.1
"2010-09-08 01:28:00",141597,3.205,214.6,13.64,0.514,19.99,108.5252,21.11,21.91,19.58,0,110.8,13.21,21.93,176.6
"2010-09-08 01:28:30",141598,3.107,212.6,8.92,0.486,19.99,108.5325,21.13,21.93,19.54,0,110.8,13.21,21.95,174.6
"2010-09-08 01:29:00",141599,1.438,225.9,17.76,0.394,19.9,108.5342,21.13,21.94,19.45,0,110.8,13.21,21.96,187.9
"2010-09-08 01:29:30",141600,1.35,265.5,42.76,0.646,19.92,108.5176,21.09,21.95,19.42,0,110.8,13.21,21.91,227.5
"2010-09-08 01:30:00",141601,2.122,214.8,9.77,0.555,19.91,108.5083,21.06,21.95,19.4,0,110.8,13.21,21.89,176.8
"2010-09-08 01:30:30",141602,2.739,203.6,13.23,0.609,19.91,108.5078,21.06,21.93,19.44,0,110.8,13.2,21.89,165.6
"2010-09-08 01:31:00",141603,1.559,208.4,23.86,0.972,19.9,108.5078,21.06,21.93,19.39,0,110.8,13.21,21.89,170.4
"2010-09-08 01:31:30",141604,0.95,165,32.36,0.504,19.8,108.5019,21.05,21.93,19.32,0,110.8,13.2,21.87,127.0
"2010-09-08 01:32:00",141605,0.978,166.9,9.41,0.229,19.74,108.4746,20.98,21.91,19.29,0,110.8,13.21,21.80,128.9
"2010-09-08 01:32:30",141606,1.37,170.9,5.147,0.086,19.86,108.4737,20.98,21.89,19.39,0,110.8,13.21,21.80,132.9
"2010-09-08 01:33:00",141607,1.423,189,4.776,0.143,19.79,108.4532,20.92,21.87,19.37,0,110.8,13.21,21.75,151.0
"2010-09-08 01:33:30",141608,1.695,198.6,5.105,0.079,19.59,108.4405,20.89,21.86,19.4,0,110.8,13.21,21.71,160.6
"2010-09-08 01:34:00",141609,1.673,195.2,12.21,0.17,19.68,108.4405,20.89,21.82,19.46,0,110.8,13.22,21.71,157.2
"2010-09-08 01:34:30",141610,2.912,171,8.68,0.455,19.73,108.4338,20.87,21.8,19.48,0,110.8,13.22,21.70,133.0
"2010-09-08 01:35:00",141611,4.253,171.8,13.41,0.79,20.02,108.4338,20.87,21.8,19.76,0,110.8,13.22,21.70,133.8
"2010-09-08 01:35:30",141612,4.255,171.6,7.513,0.528,19.99,108.4421,20.89,21.79,19.89,0,110.8,13.22,21.72,133.6
"2010-09-08 01:36:00",141613,4.256,167.3,10.7,0.539,19.89,108.4435,20.9,21.81,19.76,0,110.8,13.22,21.72,129.3
"2010-09-08 01:36:30",141614,3.762,196.1,11.27,0.779,19.89,108.4499,20.91,21.81,19.74,0,110.8,13.22,21.74,158.1
"2010-09-08 01:37:00",141615,5.671,204.1,3.996,0.564,20.03,108.4739,20.98,21.83,20.04,0,110.8,13.22,21.80,166.1
"2010-09-08 01:37:30",141616,5.472,207.5,11.73,0.45,19.98,108.4792,20.99,21.84,20.02,0,110.8,13.22,21.81,169.5
"2010-09-08 01:38:00",141617,3.907,199.9,8.49,1.028,19.82,108.4795,20.99,21.85,19.86,0,110.8,13.22,21.82,161.9
"2010-09-08 01:38:30",141618,3.099,165.4,11.8,0.277,19.67,108.4775,20.98,21.86,19.6,0,110.8,13.22,21.81,127.4
"2010-09-08 01:39:00",141619,2.006,158.8,19.02,0.752,19.71,108.4619,20.94,21.85,19.63,0,110.8,13.22,21.77,120.8
"2010-09-08 01:39:30",141620,2.108,185.2,21.29,0.551,19.72,108.4482,20.91,21.83,19.62,0,110.8,13.22,21.73,147.2
"2010-09-08 01:40:00",141621,2.95,220.3,10.62,0.358,19.74,108.4479,20.91,21.82,19.81,0,110.8,13.22,21.73,182.3
"2010-09-08 01:40:30",141622,3.578,200.6,10.26,0.585,19.75,108.4463,20.9,21.79,19.98,0,110.8,13.22,21.73,162.6
"2010-09-08 01:41:00",141623,3.339,186.4,5.759,0.366,19.77,108.4467,20.91,21.8,19.92,0,110.8,13.22,21.73,148.4
"2010-09-08 01:41:30",141624,4.332,183.2,5.738,0.515,19.74,108.4435,20.9,21.8,19.97,0,110.8,13.22,21.72,145.2
"2010-09-08 01:42:00",141625,4.932,190.6,5.661,0.506,19.84,108.4376,20.88,21.77,20.19,0,110.8,13.22,21.71,152.6
"2010-09-08 01:42:30",141626,6.098,201.1,8.28,0.571,19.87,108.4405,20.89,21.77,20.25,0,110.8,13.22,21.71,163.1
"2010-09-08 01:43:00",141627,4.901,212.6,6.205,0.762,19.86,108.4473,20.91,21.79,20.27,0,110.8,13.22,21.73,174.6
"2010-09-08 01:43:30",141628,5.756,201,3.519,0.404,19.96,108.454,20.92,21.78,20.33,0,110.8,13.22,21.75,163.0
"2010-09-08 01:44:00",141629,5.337,203.5,8.15,0.409,19.74,108.4534,20.92,21.79,20.28,0,110.8,13.22,21.75,165.5
"2010-09-08 01:44:30",141630,4.686,199,3.955,0.423,19.73,108.4576,20.93,21.79,20.29,0,110.8,13.22,21.76,161.0
"2010-09-08 01:45:00",141631,5.245,197.5,11.32,1.089,19.83,108.4567,20.93,21.79,20.32,0,110.8,13.22,21.76,159.5
"2010-09-08 01:45:30",141632,7.064,182.2,4.677,0.488,19.99,108.4592,20.94,21.79,20.39,0,110.8,13.22,21.76,144.2
"2010-09-08 01:46:00",141633,5.492,196,5.036,0.647,19.8,108.4585,20.94,21.8,20.36,0,110.8,13.22,21.76,158.0
"2010-09-08 01:46:30",141634,4.245,192.1,4.866,0.496,19.72,108.456,20.93,21.78,20.33,0,110.8,13.22,21.75,154.1
"2010-09-08 01:47:00",141635,4.719,196,6.63,0.626,19.8,108.4496,20.91,21.79,20.4,0,110.8,13.22,21.74,158.0
"2010-09-08 01:47:30",141636,5.355,191.8,6.947,0.35,19.77,108.4342,20.87,21.78,20.44,0,110.8,13.22,21.70,153.8
"2010-09-08 01:48:00",141637,5.06,190.4,7.206,0.337,19.77,108.4275,20.86,21.75,20.45,0,110.8,13.22,21.68,152.4
"2010-09-08 01:48:30",141638,5.642,192.4,7.529,0.64,19.85,108.4254,20.85,21.74,20.5,0,110.8,13.22,21.68,154.4
"2010-09-08 01:49:00",141639,6.243,202,5.506,0.397,19.76,108.4275,20.86,21.75,20.51,0,110.8,13.22,21.68,164.0